Weather History for Cleveland Burke, OH

Change the Weather History Date:

Sunday, November 25, 2012

  Actual Average Record
Temperature  
Mean Temperature 34 °F -  
Max Temperature 39 °F 45 °F 66 °F (2006)
Min Temperature 28 °F 35 °F 17 °F (2005)
Degree Days  
Heating Degree Days 32    
Moisture  
Dew Point 24 °F    
Average Humidity 67    
Maximum Humidity 81    
Minimum Humidity 53    
Precipitation  
Precipitation 0.00 in - - ()
Sea Level Pressure  
Sea Level Pressure 29.96 in    
Wind  
Wind Speed 15 mph (SW)    
Max Wind Speed 20 mph    
Max Gust Speed 24 mph    
Visibility 9 miles    
Events Snow    
Averages and records for this station are not official NWS values.
T = Trace of Precipitation, MM = Missing Value Source: NWS Daily Summary

Daily Weather History Graph

Daily Weather History Graph

Search for Another Location

Airport:

Trip Planner

Search our weather history database for the weather conditions in past years. The results will help you decide how hot, cold, wet, or windy it might be!

Date:

Astronomy

Nov. 25, 2012 Rise Set
Actual Time 7:27 AM EST 4:59 PM EST
Civil Twilight 6:57 AM EST 5:30 PM EST
Nautical Twilight 6:23 AM EST 6:04 PM EST
Astronomical Twilight 5:49 AM EST 6:37 PM EST
Moon 3:17 PM EST (11/25) 4:39 AM EST (11/25)
Length of Visible Light 10h 33m
Length of Day
9h 32m
Waxing Gibbous, 93% of the Moon is Illuminated
Nov 25
Waxing Gibbous
Nov 28
Full
Dec 6
Last Quarter
Dec 13
New
Dec 20
First Quarter

Hourly Weather History & Observations

Time (EST) Temp. Windchill Dew Point Humidity Pressure Visibility Wind Dir Wind Speed Gust Speed Precip Events Conditions
12:53 AM 30.9 °F 19.1 °F 19.9 °F 64% 30.06 in 10.0 mi SW 18.4 mph 23.0 mph N/A   Overcast
1:53 AM 30.9 °F 18.7 °F 19.9 °F 64% 30.06 in 10.0 mi SW 19.6 mph 24.2 mph N/A   Overcast
2:53 AM 30.0 °F 19.5 °F 21.0 °F 69% 30.05 in 10.0 mi SW 13.8 mph - N/A   Overcast
3:53 AM 30.0 °F 20.0 °F 19.9 °F 66% 30.03 in 10.0 mi SW 12.7 mph - N/A   Overcast
4:06 AM 30.2 °F 20.2 °F 19.4 °F 64% 30.01 in 10.0 mi SW 12.7 mph - N/A   Overcast
4:53 AM 30.0 °F 19.1 °F 19.9 °F 66% 30.03 in 10.0 mi SW 15.0 mph - N/A   Overcast
5:30 AM 30.2 °F 21.3 °F 21.2 °F 69% 30.01 in 10.0 mi SW 10.4 mph - N/A   Overcast
5:53 AM 30.0 °F 21.7 °F 21.0 °F 69% 30.01 in 9.0 mi SSW 9.2 mph - 0.00 in Snow Light Snow
6:18 AM 28.4 °F 16.6 °F 21.2 °F 74% 29.99 in 2.5 mi SSW 16.1 mph 20.7 mph 0.00 in Snow Light Snow
6:27 AM 28.4 °F 19.1 °F 23.0 °F 80% 29.98 in 1.2 mi SSW 10.4 mph 20.7 mph 0.00 in Snow Light Snow
6:34 AM 28.4 °F 18.5 °F 23.0 °F 80% 29.98 in 3.0 mi SSW 11.5 mph - 0.00 in Snow Light Snow
6:53 AM 28.0 °F 18.1 °F 23.0 °F 81% 30.00 in 10.0 mi South 11.5 mph 18.4 mph 0.00 in   Overcast
7:53 AM 28.9 °F 18.6 °F 21.9 °F 75% 29.98 in 4.0 mi South 12.7 mph - 0.00 in Snow Light Snow
8:53 AM 30.0 °F 19.5 °F 21.9 °F 72% 29.97 in 7.0 mi South 13.8 mph 20.7 mph 0.00 in   Overcast
9:53 AM 30.9 °F 22.8 °F 21.9 °F 69% 29.95 in 10.0 mi South 9.2 mph 19.6 mph 0.00 in   Overcast
10:53 AM 33.1 °F 24.4 °F 21.0 °F 61% 29.93 in 10.0 mi SSW 11.5 mph 21.9 mph N/A   Scattered Clouds
11:53 AM 36.0 °F 26.3 °F 21.9 °F 57% 29.90 in 10.0 mi SSW 16.1 mph 23.0 mph N/A   Partly Cloudy
12:53 PM 37.9 °F 29.6 °F 23.0 °F 55% 29.87 in 10.0 mi WSW 13.8 mph - N/A   Mostly Cloudy
1:53 PM 39.9 °F 32.1 °F 24.1 °F 53% 29.86 in 10.0 mi WSW 13.8 mph - N/A   Mostly Cloudy
2:53 PM 39.9 °F 32.5 °F 25.0 °F 55% 29.87 in 10.0 mi West 12.7 mph - N/A   Mostly Cloudy
3:53 PM 39.0 °F 31.8 °F 26.1 °F 60% 29.88 in 10.0 mi West 11.5 mph - N/A   Mostly Cloudy
4:53 PM 37.9 °F 28.9 °F 28.0 °F 68% 29.89 in 10.0 mi West 16.1 mph - N/A   Mostly Cloudy
5:53 PM 37.0 °F 28.5 °F 28.0 °F 70% 29.91 in 10.0 mi West 13.8 mph - N/A   Clear
6:53 PM 37.9 °F 29.6 °F 28.9 °F 70% 29.93 in 10.0 mi West 13.8 mph - N/A   Scattered Clouds
7:53 PM 39.0 °F 31.0 °F 28.9 °F 67% 29.95 in 10.0 mi West 13.8 mph - N/A   Overcast
8:48 PM 39.2 °F 31.2 °F 28.4 °F 65% 29.94 in 10.0 mi West 13.8 mph - N/A   Overcast
8:53 PM 39.0 °F 31.0 °F 28.9 °F 67% 29.96 in 10.0 mi West 13.8 mph - N/A   Overcast
9:00 PM 39.2 °F 30.8 °F 28.4 °F 65% 29.94 in 10.0 mi West 15.0 mph - N/A   Overcast
9:53 PM 39.0 °F 30.6 °F 28.9 °F 67% 29.96 in 10.0 mi West 15.0 mph - N/A   Overcast
10:53 PM 39.0 °F 29.6 °F 28.9 °F 67% 29.98 in 10.0 mi West 18.4 mph - N/A   Overcast
11:53 PM 39.0 °F 29.3 °F 30.0 °F 70% 29.99 in 10.0 mi WNW 19.6 mph 23.0 mph N/A   Overcast